Location: Unspecified
(35.6961°N, 0.0000°E)
Time: 00:43:22
(UTC+00:00)

Altair - Pass Details

Date: 19 May 2019
Orbit: 1501 x 1683 km, 47.2° (Epoch: 16 June)

Event Time Altitude Azimuth Distance (km) Brightness Sun altitude
Rises 13:18:05 0° 296° (WNW) 4,852 10.3 66.0°
Reaches altitude 10° 13:21:58 10° 284° (WNW) 3,834 10.0 65.4°
Maximum altitude 13:29:18 25° 234° (SW) 2,774 9.8 64.1°
Drops below altitude 10° 13:36:27 10° 184° (S) 3,711 9.9 62.9°
Sets 13:40:11 0° 171° (S) 4,667 10.2 62.2°
